TimeEDT,TemperatureF,Dew PointF,Humidity,Sea Level PressureIn,VisibilityMPH,Wind Direction,Wind SpeedMPH,Gust SpeedMPH,PrecipitationIn,Events,Conditions,WindDirDegrees,DateUTC
12:58 AM,61.3,53.4,75,30.11,10.0,Calm,Calm,-,N/A,,Mostly Cloudy,0,2013-05-03 04:58:00
1:58 AM,59.7,54.7,83,30.10,10.0,Calm,Calm,-,N/A,,Mostly Cloudy,0,2013-05-03 05:58:00
2:58 AM,58.5,54.5,87,30.08,10.0,NNE,1.2,-,N/A,,Mostly Cloudy,20,2013-05-03 06:58:00
3:58 AM,61.7,53.4,74,30.07,10.0,Calm,Calm,-,N/A,,Mostly Cloudy,0,2013-05-03 07:58:00
4:58 AM,62.2,53.4,73,30.08,10.0,SE,5.8,-,N/A,,Mostly Cloudy,140,2013-05-03 08:58:00
5:58 AM,61.5,53.2,74,30.09,10.0,SE,4.6,-,N/A,,Scattered Clouds,130,2013-05-03 09:58:00
6:58 AM,61.7,52.7,72,30.10,10.0,SE,6.9,-,N/A,,Mostly Cloudy,130,2013-05-03 10:58:00
7:58 AM,62.4,52.3,70,30.11,10.0,SE,6.9,-,N/A,,Mostly Cloudy,130,2013-05-03 11:58:00
8:58 AM,64.0,53.1,67,30.11,10.0,SE,15.0,-,N/A,,Mostly Cloudy,140,2013-05-03 12:58:00
9:58 AM,65.3,53.6,66,30.12,10.0,SE,9.2,-,N/A,,Scattered Clouds,140,2013-05-03 13:58:00
10:58 AM,68.5,54.7,61,30.09,10.0,SE,10.4,-,N/A,,Scattered Clouds,140,2013-05-03 14:58:00
11:58 AM,71.2,55.4,57,30.08,10.0,ESE,13.8,-,N/A,,Scattered Clouds,110,2013-05-03 15:58:00
12:12 PM,71.6,53.6,53,30.07,10.0,ESE,8.1,-,N/A,Rain,Light Rain,120,2013-05-03 16:12:00
12:20 PM,71.6,55.4,57,30.07,10.0,ESE,12.7,20.7,N/A,,Partly Cloudy,110,2013-05-03 16:20:00
12:58 PM,72.5,53.8,52,30.05,10.0,ESE,15.0,17.3,N/A,,Partly Cloudy,110,2013-05-03 16:58:00
1:58 PM,73.0,53.2,50,30.04,10.0,ESE,15.0,24.2,N/A,,Scattered Clouds,120,2013-05-03 17:58:00
2:50 PM,75.2,53.6,47,30.03,10.0,ESE,13.8,21.9,N/A,,Partly Cloudy,120,2013-05-03 18:50:00
2:56 PM,75.0,54.0,48,30.02,10.0,East,16.1,20.7,N/A,,Partly Cloudy,100,2013-05-03 18:56:00
3:56 PM,74.8,52.3,45,30.00,10.0,ESE,13.8,21.9,N/A,,Scattered Clouds,120,2013-05-03 19:56:00
4:55 PM,76.3,50.5,40,29.99,10.0,SSE,17.3,25.3,N/A,,Mostly Cloudy,150,2013-05-03 20:55:00
5:55 PM,74.1,49.5,42,29.99,10.0,SE,13.8,-,N/A,,Mostly Cloudy,130,2013-05-03 21:55:00
6:55 PM,73.2,42.3,33,29.99,10.0,SE,11.5,-,N/A,,Mostly Cloudy,130,2013-05-03 22:55:00
7:55 PM,71.4,40.1,32,30.00,10.0,SE,9.2,-,N/A,,Mostly Cloudy,130,2013-05-03 23:55:00
8:55 PM,68.9,40.3,35,30.01,10.0,ESE,8.1,-,N/A,,Mostly Cloudy,110,2013-05-04 00:55:00
9:58 PM,67.5,36.3,32,30.01,10.0,ESE,9.2,-,N/A,,Mostly Cloudy,120,2013-05-04 01:58:00
10:58 PM,65.7,36.1,34,30.02,10.0,ESE,11.5,-,N/A,,Mostly Cloudy,120,2013-05-04 02:58:00
11:58 PM,63.9,37.6,38,30.02,10.0,ESE,12.7,-,N/A,,Mostly Cloudy,120,2013-05-04 03:58:00